Hourly Data Report for September 26, 2020

SHEARWATER RCS
NOVA SCOTIA
Current Station Operator: ECCC - MSC

44°37'47.000" N
63°30'48.000" W
24.00 m
8205092
71264
AAW

Download Data

Hourly Data (September 2020)
Hourly Data Report for September 26, 2020
TIME Temp Definition
°C
Dew Point Definition
°C
Rel Hum Definition
%
Wind Dir Definition
10's deg

Wind Spd Definition
km/h
Visibility Definition
km
Stn Press Definition
kPa
Hmdx Definition


Wind Chill Definition


Weather Definition


00:00 8.8 5.5 79 33 3   101.87     LegendNANA
01:00 8.0 4.9 81 32 4   101.88     LegendNANA
02:00 7.4 4.1 80 33 2   101.89     LegendNANA
03:00 6.7 5.3 90 11 1   101.90     LegendNANA
04:00 7.1 6.0 92   0   101.92     LegendNANA
05:00 7.9 5.9 87 3 2   101.95     LegendNANA
06:00 7.5 6.1 91 32 4   101.96     LegendNANA
07:00 8.6 7.3 91   0   102.02     LegendNANA
08:00 12.2 9.3 82 21 3   102.02     LegendNANA
09:00 13.6 10.4 81 17 4   102.03     LegendNANA
10:00 15.8 13.3 85 15 12   102.05     LegendNANA
11:00 16.2 13.8 86 14 14   101.97     LegendNANA
12:00 17.4 13.8 80 15 12   101.95     LegendNANA
13:00 17.1 13.4 79 15 17   101.92     LegendNANA
14:00 16.5 13.5 83 16 23   101.87     LegendNANA
15:00 16.4 13.2 81 16 15   101.85     LegendNANA
16:00 15.9 13.6 86 18 14   101.82     LegendNANA
17:00 14.9 13.4 90 19 13   101.83     LegendNANA
18:00 14.7 13.6 93 19 12   101.87     LegendNANA
19:00 14.7 13.7 94 19 11   101.88     LegendNANA
20:00 14.3 13.2 93 20 12   101.91     LegendNANA
21:00 14.1 13.0 93 19 12   101.89     LegendNANA
22:00 14.4 13.4 94 22 10   101.88     LegendNANA
23:00 14.8 14.4 98 18 3   101.84     LegendNANA

Notes on Data Quality.

Legend

  • E = Estimated
  • M = Missing
  • NA = Not Available*
  • [empty] = Indicates an unobserved value
Date modified: